Estación de La Unión Norte

Ultimos registro cada 15 minutos 56
Estación Fecha / Hora Temperatura Humedad Lluvia Velocidad Dirección Radiación Presion
56 La Unión Norte 09-05-2026 13:45 14,7 73,6 0 0 206 444,4 1023,5
55 La Unión Norte 09-05-2026 13:30 13,8 78,1 0 0 204 418,1 1023,8
54 La Unión Norte 09-05-2026 13:15 13,2 78,9 0 0 184 421,9 1024,1
53 La Unión Norte 09-05-2026 13:00 12,5 81,3 0 0 198 423,1 1024,2
52 La Unión Norte 09-05-2026 12:45 12 81,6 0 0 204 444,4 1024,1
51 La Unión Norte 09-05-2026 12:30 11,2 85,5 0 0 202 418,1 1024,4
50 La Unión Norte 09-05-2026 12:15 10,3 90,9 0 0 236 425,6 1024,9
49 La Unión Norte 09-05-2026 12:00 9,2 95,8 0 0 237 379,4 1025
48 La Unión Norte 09-05-2026 11:45 8,4 97,7 0 0 237 413,1 1025,5
47 La Unión Norte 09-05-2026 11:30 7,3 98,3 0 0 240 376,9 1025,7
46 La Unión Norte 09-05-2026 11:15 6,4 98,7 0 0 247 360,6 1025,7
45 La Unión Norte 09-05-2026 11:00 5,8 99 0 0 257 345,6 1025,5
44 La Unión Norte 09-05-2026 10:45 4,9 99,1 0 0 312 325,6 1025,4
43 La Unión Norte 09-05-2026 10:30 4 99 0 0 289 186,9 1025,6
42 La Unión Norte 09-05-2026 10:15 2,8 98,7 0 0 251 274,4 1025,6
41 La Unión Norte 09-05-2026 10:00 2,1 98,6 0 0 251 143,1 1025,7
40 La Unión Norte 09-05-2026 09:45 1,7 98,8 0 0 250 131,9 1025,8
39 La Unión Norte 09-05-2026 09:30 1,3 98,9 0 0 201 105,6 1025,9
38 La Unión Norte 09-05-2026 09:15 0,4 98,6 0 0 170 78,1 1026
37 La Unión Norte 09-05-2026 09:00 0,1 98,6 0 0 170 59,4 1026,2
36 La Unión Norte 09-05-2026 08:45 0 98,5 0 0 170 51,9 1025,9
35 La Unión Norte 09-05-2026 08:30 -0,2 98,6 0 0 170 31,9 1026
34 La Unión Norte 09-05-2026 08:15 -0,3 98,4 0 0 170 16,9 1026,1
33 La Unión Norte 09-05-2026 08:00 -0,4 98,4 0 0 170 8,1 1026,1
32 La Unión Norte 09-05-2026 07:45 -0,5 98,3 0 0 170 0,6 1025,9
31 La Unión Norte 09-05-2026 07:30 -0,5 98,3 0 0 170 0,6 1025,7
30 La Unión Norte 09-05-2026 07:15 -0,4 98,2 0 0 170 0,6 1025,7
29 La Unión Norte 09-05-2026 07:00 -0,3 98,2 0 0 170 0,6 1026
28 La Unión Norte 09-05-2026 06:45 -0,2 98,2 0 0 170 0,6 1025,9
27 La Unión Norte 09-05-2026 06:30 -0,1 98,1 0 0 170 0,6 1026
26 La Unión Norte 09-05-2026 06:15 0 97,9 0 0 170 0,6 1026
25 La Unión Norte 09-05-2026 06:00 0,3 98 0 0 170 0,6 1026
24 La Unión Norte 09-05-2026 05:45 0,1 97,9 0 0 170 0,6 1026,1
23 La Unión Norte 09-05-2026 05:30 -0,1 97,9 0 0 170 0,6 1026,2
22 La Unión Norte 09-05-2026 05:15 -0,1 97,7 0 0 170 0,6 1026
21 La Unión Norte 09-05-2026 05:00 0,1 97,5 0 0 170 0,6 1025,9
20 La Unión Norte 09-05-2026 04:45 0,5 97,6 0 0 170 0,6 1026,2
19 La Unión Norte 09-05-2026 04:30 0,2 97,7 0 0 170 0,6 1026,3
18 La Unión Norte 09-05-2026 04:15 0,1 97,3 0 0 170 0,6 1025,9
17 La Unión Norte 09-05-2026 04:00 0,6 97,6 0 0 170 0,6 1026,4
16 La Unión Norte 09-05-2026 03:45 0,7 97,5 0 0 170 0,6 1026,3
15 La Unión Norte 09-05-2026 03:30 0,8 97,1 0 0 170 0,6 1026,6
14 La Unión Norte 09-05-2026 03:15 1,1 97,1 0 0 170 0,6 1026,7
13 La Unión Norte 09-05-2026 03:00 1,2 97,4 0 0 170 0,6 1026,9
12 La Unión Norte 09-05-2026 02:45 1,2 96,7 0 0 170 0,6 1026,9
11 La Unión Norte 09-05-2026 02:30 1,4 96,8 0 0 170 0,6 1026,7
10 La Unión Norte 09-05-2026 02:15 1,5 96,9 0 0 170 0,6 1026,9
9 La Unión Norte 09-05-2026 02:00 1,9 96,6 0 0 170 0,6 1027,1
8 La Unión Norte 09-05-2026 01:45 1,9 96,4 0 0 170 0,6 1027
7 La Unión Norte 09-05-2026 01:30 2 96,3 0 0 170 0,6 1027
6 La Unión Norte 09-05-2026 01:15 2,3 96,1 0 0 170 0,6 1027,1
5 La Unión Norte 09-05-2026 01:00 2,2 95,7 0 0 170 0,6 1027
4 La Unión Norte 09-05-2026 00:45 2,6 95,5 0 0 170 0,6 1027
3 La Unión Norte 09-05-2026 00:30 2,4 95,1 0 0 170 0,6 1026,9
2 La Unión Norte 09-05-2026 00:15 2,8 95 0 0 170 0,6 1026,9
1 La Unión Norte 09-05-2026 00:00 2,9 94,6 0 0 170 0,6 1026,7